| time (UTC) | temp F | wind direction | speed MPH | gust MPH | rain 1hr in | rain 24hr in | rain mn in | humidity % | barometer mb |
| 20260906095545 | 72 | 167 | 7.0 | 14.0 | 0.00 | 0.00 | 0.00 | 79 | 1018.0 |
| 20260906095045 | 73 | 103 | 4.0 | 16.0 | 0.00 | 0.00 | 0.00 | 78 | 1017.9 |
| 20260906094554 | 74 | 117 | 5.0 | 16.0 | 0.00 | 0.00 | 0.00 | 77 | 1017.7 |
| 20260906094043 | 74 | 105 | 6.0 | 16.0 | 0.00 | 0.00 | 0.00 | 75 | 1017.5 |
| 20260906093545 | 75 | 164 | 4.0 | 12.0 | 0.00 | 0.00 | 0.00 | 73 | 1017.4 |
| 20260906093057 | 75 | 104 | 5.0 | 12.0 | 0.00 | 0.00 | 0.00 | 71 | 1017.2 |
| 20260906092544 | 76 | 122 | 5.0 | 13.0 | 0.00 | 0.00 | 0.00 | 66 | 1017.1 |
| 20260906092044 | 77 | 141 | 4.0 | 13.0 | 0.00 | 0.00 | 0.00 | 61 | 1016.8 |
| 20260906091600 | 77 | 94 | 5.0 | 11.0 | 0.00 | 0.00 | 0.00 | 54 | 1016.6 |
| 20260906091044 | 78 | 0 | 0.0 | 0.0 | 0.00 | 0.00 | 0.00 | 35 | 1016.5 |
| 20260906090543 | 79 | 0 | 0.0 | 0.0 | 0.00 | 0.00 | 0.00 | 34 | 1016.1 |
| 20260906090108 | 80 | 0 | 0.0 | 0.0 | 0.00 | 0.00 | 0.00 | 34 | 1015.9 |
| 20260906085545 | 80 | 0 | 0.0 | 1.0 | 0.00 | 0.00 | 0.00 | 33 | 1015.8 |
| 20260906085043 | 81 | 0 | 0.0 | 4.0 | 0.00 | 0.00 | 0.00 | 32 | 1015.8 |
| 20260906084559 | 81 | 0 | 0.0 | 4.0 | 0.00 | 0.00 | 0.00 | 33 | 1015.6 |
| 20260906084043 | 81 | 257 | 0.0 | 1.0 | 0.00 | 0.00 | 0.00 | 33 | 1015.6 |
| 20260906083543 | 82 | 327 | 0.0 | 3.0 | 0.00 | 0.00 | 0.00 | 33 | 1015.4 |
| 20260906083056 | 83 | 311 | 0.0 | 3.0 | 0.00 | 0.00 | 0.00 | 32 | 1015.3 |
| 20260906082542 | 83 | 240 | 1.0 | 3.0 | 0.00 | 0.00 | 0.00 | 31 | 1015.2 |
| 20260906082044 | 83 | 248 | 0.0 | 3.0 | 0.00 | 0.00 | 0.00 | 32 | 1015.1 |
| 20260906081619 | 84 | 0 | 0.0 | 3.0 | 0.00 | 0.00 | 0.00 | 31 | 1014.9 |
| 20260906081043 | 84 | 0 | 0.0 | 4.0 | 0.00 | 0.00 | 0.00 | 31 | 1014.9 |
| 20260906080543 | 85 | 0 | 0.0 | 4.0 | 0.00 | 0.00 | 0.00 | 31 | 1014.8 |
| 20260906080056 | 85 | 188 | 1.0 | 4.0 | 0.00 | 0.00 | 0.00 | 31 | 1014.7 |
| 20260906075543 | 85 | 328 | 0.0 | 4.0 | 0.00 | 0.00 | 0.00 | 31 | 1014.6 |
| 20260906075043 | 86 | 0 | 1.0 | 4.0 | 0.00 | 0.00 | 0.00 | 31 | 1014.5 |
| 20260906074614 | 86 | 0 | 1.0 | 5.0 | 0.00 | 0.00 | 0.00 | 31 | 1014.4 |
| 20260906074046 | 86 | 147 | 1.0 | 5.0 | 0.00 | 0.00 | 0.00 | 30 | 1014.2 |
| 20260906073544 | 87 | 218 | 3.0 | 6.0 | 0.00 | 0.00 | 0.00 | 30 | 1014.2 |
| 20260906073101 | 87 | 0 | 1.0 | 8.0 | 0.00 | 0.00 | 0.00 | 30 | 1014.2 |
| 20260906072545 | 88 | 137 | 4.0 | 8.0 | 0.00 | 0.00 | 0.00 | 29 | 1014.1 |
| 20260906072047 | 88 | 184 | 3.0 | 8.0 | 0.00 | 0.00 | 0.00 | 29 | 1014.1 |
| 20260906071600 | 88 | 244 | 2.0 | 9.0 | 0.00 | 0.00 | 0.00 | 29 | 1014.0 |
| 20260906071045 | 88 | 198 | 2.0 | 9.0 | 0.00 | 0.00 | 0.00 | 28 | 1013.7 |
| 20260906070543 | 89 | 329 | 2.0 | 5.0 | 0.00 | 0.00 | 0.00 | 28 | 1013.6 |
| 20260906070054 | 89 | 228 | 0.0 | 8.0 | 0.00 | 0.00 | 0.00 | 28 | 1013.6 |
| 20260906065543 | 89 | 0 | 2.0 | 8.0 | 0.00 | 0.00 | 0.00 | 28 | 1013.4 |
| 20260906065043 | 90 | 300 | 2.0 | 8.0 | 0.00 | 0.00 | 0.00 | 28 | 1013.4 |
| 20260906064551 | 90 | 213 | 3.0 | 11.0 | 0.00 | 0.00 | 0.00 | 27 | 1013.4 |
| 20260906064045 | 90 | 227 | 4.0 | 11.0 | 0.00 | 0.00 | 0.00 | 27 | 1013.3 |
| 20260906063545 | 90 | 252 | 4.0 | 11.0 | 0.00 | 0.00 | 0.00 | 26 | 1013.1 |
| 20260906063059 | 90 | 193 | 6.0 | 11.0 | 0.00 | 0.00 | 0.00 | 26 | 1013.2 |
| 20260906062545 | 90 | 250 | 2.0 | 14.0 | 0.00 | 0.00 | 0.00 | 27 | 1013.1 |
| 20260906062046 | 90 | 240 | 3.0 | 14.0 | 0.00 | 0.00 | 0.00 | 26 | 1013.1 |
| 20260906061608 | 90 | 173 | 6.0 | 17.0 | 0.00 | 0.00 | 0.00 | 26 | 1013.0 |
| 20260906061045 | 90 | 179 | 5.0 | 17.0 | 0.00 | 0.00 | 0.00 | 27 | 1013.0 |
| 20260906060544 | 90 | 152 | 1.0 | 8.0 | 0.00 | 0.00 | 0.00 | 28 | 1012.9 |
| 20260906060055 | 90 | 200 | 2.0 | 7.0 | 0.00 | 0.00 | 0.00 | 29 | 1013.0 |
| 20260906055543 | 90 | 245 | 1.0 | 9.0 | 0.00 | 0.00 | 0.00 | 29 | 1013.0 |
| 20260906055043 | 90 | 192 | 3.0 | 13.0 | 0.00 | 0.00 | 0.00 | 29 | 1013.0 |
| 20260906054552 | 91 | 219 | 5.0 | 13.0 | 0.00 | 0.00 | 0.00 | 29 | 1013.1 |
| 20260906054043 | 91 | 172 | 2.0 | 6.0 | 0.00 | 0.00 | 0.00 | 30 | 1012.9 |
| 20260906053545 | 91 | 197 | 2.0 | 7.0 | 0.00 | 0.00 | 0.00 | 29 | 1013.0 |
| 20260906053056 | 92 | 229 | 3.0 | 9.0 | 0.00 | 0.00 | 0.00 | 29 | 1012.9 |
| 20260906052545 | 92 | 188 | 2.0 | 9.0 | 0.00 | 0.00 | 0.00 | 29 | 1012.9 |
| 20260906052045 | 93 | 179 | 3.0 | 11.0 | 0.00 | 0.00 | 0.00 | 29 | 1012.7 |
| 20260906051602 | 93 | 324 | 2.0 | 13.0 | 0.00 | 0.00 | 0.00 | 29 | 1012.7 |
| 20260906051044 | 93 | 284 | 6.0 | 15.0 | 0.00 | 0.00 | 0.00 | 28 | 1012.8 |
| 20260906050548 | 92 | 224 | 6.0 | 15.0 | 0.00 | 0.00 | 0.00 | 28 | 1012.7 |
| 20260906050055 | 93 | 202 | 5.0 | 9.0 | 0.00 | 0.00 | 0.00 | 28 | 1012.8 |
| 20260906045547 | 92 | 328 | 1.0 | 7.0 | 0.00 | 0.00 | 0.00 | 30 | 1012.7 |
| 20260906045043 | 92 | 242 | 3.0 | 11.0 | 0.00 | 0.00 | 0.00 | 29 | 1012.7 |
| 20260906044556 | 92 | 204 | 3.0 | 11.0 | 0.00 | 0.00 | 0.00 | 29 | 1012.9 |
| 20260906044045 | 92 | 257 | 2.0 | 11.0 | 0.00 | 0.00 | 0.00 | 28 | 1012.8 |
| 20260906043543 | 92 | 279 | 2.0 | 7.0 | 0.00 | 0.00 | 0.00 | 29 | 1012.8 |
| 20260906043056 | 93 | 230 | 1.0 | 9.0 | 0.00 | 0.00 | 0.00 | 29 | 1012.9 |
| 20260906042546 | 93 | 324 | 2.0 | 9.0 | 0.00 | 0.00 | 0.00 | 30 | 1012.8 |
| 20260906042045 | 94 | 222 | 1.0 | 10.0 | 0.00 | 0.00 | 0.00 | 29 | 1012.7 |
| 20260906041557 | 94 | 287 | 3.0 | 10.0 | 0.00 | 0.00 | 0.00 | 29 | 1012.7 |
| 20260906041045 | 94 | 354 | 1.0 | 10.0 | 0.00 | 0.00 | 0.00 | 29 | 1012.7 |
| 20260906040544 | 94 | 316 | 3.0 | 10.0 | 0.00 | 0.00 | 0.00 | 29 | 1012.8 |
| 20260906040055 | 94 | 250 | 1.0 | 11.0 | 0.00 | 0.00 | 0.00 | 29 | 1012.8 |
| 20260906035542 | 93 | 216 | 6.0 | 15.0 | 0.00 | 0.00 | 0.00 | 29 | 1012.8 |
| 20260906035047 | 93 | 211 | 3.0 | 15.0 | 0.00 | 0.00 | 0.00 | 30 | 1012.9 |
| 20260906034550 | 93 | 201 | 6.0 | 15.0 | 0.00 | 0.00 | 0.00 | 30 | 1013.0 |
| 20260906034043 | 93 | 295 | 2.0 | 10.0 | 0.00 | 0.00 | 0.00 | 30 | 1012.9 |
| 20260906033541 | 93 | 208 | 3.0 | 10.0 | 0.00 | 0.00 | 0.00 | 30 | 1013.0 |
| 20260906033057 | 93 | 333 | 3.0 | 11.0 | 0.00 | 0.00 | 0.00 | 31 | 1013.1 |
| 20260906032542 | 92 | 254 | 5.0 | 11.0 | 0.00 | 0.00 | 0.00 | 31 | 1013.1 |
| 20260906032045 | 93 | 203 | 3.0 | 7.0 | 0.00 | 0.00 | 0.00 | 31 | 1013.1 |
| 20260906031600 | 93 | 339 | 3.0 | 12.0 | 0.00 | 0.00 | 0.00 | 31 | 1013.2 |
| 20260906031046 | 94 | 266 | 2.0 | 12.0 | 0.00 | 0.00 | 0.00 | 31 | 1013.4 |
| 20260906030544 | 93 | 342 | 4.0 | 12.0 | 0.00 | 0.00 | 0.00 | 32 | 1013.5 |
| 20260906030053 | 93 | 255 | 2.0 | 6.0 | 0.00 | 0.00 | 0.00 | 33 | 1013.4 |
| 20260906025543 | 92 | 221 | 2.0 | 9.0 | 0.00 | 0.00 | 0.00 | 33 | 1013.6 |
| 20260906025043 | 92 | 288 | 3.0 | 9.0 | 0.00 | 0.00 | 0.00 | 33 | 1013.6 |
| 20260906024558 | 92 | 290 | 2.0 | 9.0 | 0.00 | 0.00 | 0.00 | 34 | 1013.9 |
| 20260906024043 | 92 | 196 | 3.0 | 6.0 | 0.00 | 0.00 | 0.00 | 35 | 1014.1 |
| 20260906023545 | 92 | 238 | 3.0 | 6.0 | 0.00 | 0.00 | 0.00 | 35 | 1014.1 |
| 20260906023056 | 92 | 254 | 1.0 | 7.0 | 0.00 | 0.00 | 0.00 | 36 | 1014.2 |
| 20260906022544 | 91 | 316 | 3.0 | 7.0 | 0.00 | 0.00 | 0.00 | 36 | 1014.4 |
| 20260906022045 | 90 | 235 | 2.0 | 6.0 | 0.00 | 0.00 | 0.00 | 38 | 1014.3 |
| 20260906021554 | 90 | 247 | 2.0 | 7.0 | 0.00 | 0.00 | 0.00 | 38 | 1014.4 |
| 20260906021043 | 90 | 35 | 2.0 | 7.0 | 0.00 | 0.00 | 0.00 | 37 | 1014.7 |
| 20260906020542 | 91 | 207 | 3.0 | 7.0 | 0.00 | 0.00 | 0.00 | 36 | 1014.7 |
| 20260906020105 | 90 | 114 | 1.0 | 9.0 | 0.00 | 0.00 | 0.00 | 38 | 1014.6 |
| 20260906015543 | 89 | 316 | 3.0 | 9.0 | 0.00 | 0.00 | 0.00 | 39 | 1014.7 |
| 20260906015043 | 90 | 329 | 2.0 | 8.0 | 0.00 | 0.00 | 0.00 | 38 | 1014.9 |
| 20260906014558 | 90 | 238 | 2.0 | 8.0 | 0.00 | 0.00 | 0.00 | 39 | 1015.0 |
| 20260906014044 | 89 | 209 | 1.0 | 6.0 | 0.00 | 0.00 | 0.00 | 38 | 1015.2 |
| 20260906013543 | 90 | 251 | 1.0 | 6.0 | 0.00 | 0.00 | 0.00 | 39 | 1015.4 |
| 20260906013056 | 89 | 252 | 2.0 | 6.0 | 0.00 | 0.00 | 0.00 | 40 | 1015.4 |
| 20260906012543 | 88 | 342 | 2.0 | 8.0 | 0.00 | 0.00 | 0.00 | 40 | 1015.5 |
| 20260906012044 | 88 | 174 | 1.0 | 9.0 | 0.00 | 0.00 | 0.00 | 41 | 1015.6 |
| 20260906011603 | 88 | 306 | 2.0 | 9.0 | 0.00 | 0.00 | 0.00 | 40 | 1015.6 |
| 20260906011044 | 88 | 237 | 2.0 | 7.0 | 0.00 | 0.00 | 0.00 | 40 | 1015.7 |
| 20260906010543 | 88 | 243 | 1.0 | 7.0 | 0.00 | 0.00 | 0.00 | 40 | 1015.7 |
| 20260906010104 | 88 | 286 | 2.0 | 7.0 | 0.00 | 0.00 | 0.00 | 40 | 1015.7 |
| 20260906005543 | 87 | 240 | 2.0 | 12.0 | 0.00 | 0.00 | 0.00 | 40 | 1015.8 |
| 20260906005043 | 86 | 242 | 5.0 | 12.0 | 0.00 | 0.00 | 0.00 | 40 | 1015.9 |
| 20260906004602 | 87 | 208 | 5.0 | 9.0 | 0.00 | 0.00 | 0.00 | 40 | 1016.1 |
| 20260906004042 | 88 | 309 | 3.0 | 7.0 | 0.00 | 0.00 | 0.00 | 39 | 1016.2 |
| 20260906003543 | 88 | 234 | 2.0 | 7.0 | 0.00 | 0.00 | 0.00 | 40 | 1016.3 |
| 20260906003105 | 87 | 304 | 0.0 | 7.0 | 0.00 | 0.00 | 0.00 | 43 | 1016.3 |
| 20260906002543 | 86 | 249 | 3.0 | 7.0 | 0.00 | 0.00 | 0.00 | 42 | 1016.3 |
| 20260906002042 | 86 | 334 | 0.0 | 7.0 | 0.00 | 0.00 | 0.00 | 43 | 1016.3 |
| 20260906001559 | 87 | 203 | 1.0 | 7.0 | 0.00 | 0.00 | 0.00 | 43 | 1016.3 |
| 20260906001043 | 86 | 0 | 0.0 | 6.0 | 0.00 | 0.00 | 0.00 | 50 | 1016.4 |
| 20260906000543 | 84 | 346 | 0.0 | 6.0 | 0.00 | 0.00 | 0.00 | 53 | 1016.4 |
| 20260906000101 | 83 | 233 | 1.0 | 4.0 | 0.00 | 0.00 | 0.00 | 55 | 1016.4 |
| 20260905235543 | 82 | 97 | 1.0 | 3.0 | 0.00 | 0.00 | 0.00 | 59 | 1016.3 |
| 20260905235043 | 82 | 187 | 0.0 | 7.0 | 0.00 | 0.00 | 0.00 | 62 | 1016.3 |
| 20260905234604 | 82 | 156 | 1.0 | 7.0 | 0.00 | 0.00 | 0.00 | 62 | 1016.5 |
| 20260905234044 | 84 | 176 | 0.0 | 0.0 | 0.00 | 0.00 | 0.00 | 60 | 1016.5 |
| 20260905233544 | 84 | 0 | 0.0 | 0.0 | 0.00 | 0.00 | 0.00 | 61 | 1016.3 |
| 20260905233102 | 83 | 0 | 0.0 | 1.0 | 0.00 | 0.00 | 0.00 | 62 | 1016.3 |
| 20260905232544 | 82 | 0 | 0.0 | 3.0 | 0.00 | 0.00 | 0.00 | 64 | 1016.2 |
| 20260905232044 | 81 | 0 | 0.0 | 6.0 | 0.00 | 0.00 | 0.00 | 65 | 1016.3 |
| 20260905231600 | 80 | 294 | 1.0 | 6.0 | 0.00 | 0.00 | 0.00 | 64 | 1016.3 |
| 20260905231044 | 80 | 0 | 0.0 | 0.0 | 0.00 | 0.00 | 0.00 | 66 | 1016.4 |
| 20260905230544 | 79 | 0 | 0.0 | 0.0 | 0.00 | 0.00 | 0.00 | 71 | 1016.2 |
| 20260905230057 | 77 | 0 | 0.0 | 0.0 | 0.00 | 0.00 | 0.00 | 73 | 1016.3 |
| 20260905225544 | 76 | 0 | 0.0 | 0.0 | 0.00 | 0.00 | 0.00 | 76 | 1016.3 |
| 20260905225043 | 75 | 0 | 0.0 | 1.0 | 0.00 | 0.00 | 0.00 | 75 | 1016.4 |
| 20260905224609 | 75 | 0 | 0.0 | 1.0 | 0.00 | 0.00 | 0.00 | 74 | 1016.5 |
| 20260905224045 | 74 | 0 | 0.0 | 1.0 | 0.00 | 0.00 | 0.00 | 77 | 1016.6 |
| 20260905223544 | 73 | 0 | 0.0 | 1.0 | 0.00 | 0.00 | 0.00 | 78 | 1016.7 |
| 20260905223100 | 72 | 0 | 0.0 | 2.0 | 0.00 | 0.00 | 0.00 | 80 | 1016.9 |
| 20260905222545 | 72 | 0 | 0.0 | 3.0 | 0.00 | 0.00 | 0.00 | 80 | 1017.0 |
| 20260905222041 | 71 | 37 | 0.0 | 3.0 | 0.00 | 0.00 | 0.00 | 83 | 1016.8 |
| 20260905221603 | 70 | 0 | 1.0 | 3.0 | 0.00 | 0.00 | 0.00 | 84 | 1017.1 |
| 20260905221044 | 69 | 72 | 0.0 | 2.0 | 0.00 | 0.00 | 0.00 | 89 | 1017.1 |
| 20260905220543 | 68 | 89 | 0.0 | 2.0 | 0.00 | 0.00 | 0.00 | 89 | 1017.2 |
| 20260905220106 | 68 | 32 | 0.0 | 2.0 | 0.00 | 0.00 | 0.00 | 90 | 1017.1 |
| 20260905215544 | 68 | 169 | 1.0 | 4.0 | 0.00 | 0.00 | 0.00 | 91 | 1017.1 |
| 20260905215044 | 67 | 173 | 1.0 | 4.0 | 0.00 | 0.00 | 0.00 | 91 | 1017.2 |
| 20260905214600 | 67 | 195 | 0.0 | 5.0 | 0.00 | 0.00 | 0.00 | 92 | 1017.0 |
| 20260905214044 | 67 | 191 | 1.0 | 5.0 | 0.00 | 0.00 | 0.00 | 93 | 1016.9 |
| 20260905213544 | 66 | 187 | 1.0 | 4.0 | 0.00 | 0.00 | 0.00 | 94 | 1016.9 |
| 20260905213102 | 66 | 180 | 0.0 | 2.0 | 0.00 | 0.00 | 0.00 | 96 | 1016.8 |
| 20260905212544 | 65 | 155 | 0.0 | 3.0 | 0.00 | 0.00 | 0.00 | 97 | 1016.7 |
| 20260905212040 | 65 | 193 | 0.0 | 3.0 | 0.00 | 0.00 | 0.00 | 98 | 1016.6 |
| 20260905211627 | 64 | 153 | 0.0 | 2.0 | 0.00 | 0.00 | 0.00 | 98 | 1016.4 |
| 20260905211045 | 63 | 149 | 1.0 | 2.0 | 0.00 | 0.00 | 0.00 | 98 | 1016.3 |
| 20260905210544 | 62 | 276 | 1.0 | 2.0 | 0.00 | 0.00 | 0.00 | 98 | 1016.1 |
| 20260905210122 | 62 | 338 | 1.0 | 2.0 | 0.00 | 0.00 | 0.00 | 98 | 1016.1 |
| 20260905205544 | 61 | 309 | 0.0 | 2.0 | 0.00 | 0.00 | 0.00 | 97 | 1016.2 |
| 20260905205044 | 61 | 306 | 0.0 | 2.0 | 0.00 | 0.00 | 0.00 | 97 | 1016.2 |
| 20260905204608 | 61 | 301 | 1.0 | 2.0 | 0.00 | 0.00 | 0.00 | 97 | 1016.2 |
| 20260905204044 | 62 | 321 | 1.0 | 2.0 | 0.00 | 0.00 | 0.00 | 97 | 1016.2 |
| 20260905203540 | 62 | 295 | 1.0 | 2.0 | 0.00 | 0.00 | 0.00 | 98 | 1016.2 |
| 20260905203118 | 61 | 316 | 1.0 | 2.0 | 0.00 | 0.00 | 0.00 | 97 | 1016.1 |
| 20260905202543 | 61 | 308 | 0.0 | 2.0 | 0.00 | 0.00 | 0.00 | 97 | 1016.3 |
| 20260905202043 | 61 | 320 | 1.0 | 2.0 | 0.00 | 0.00 | 0.00 | 97 | 1016.3 |
| 20260905201559 | 61 | 318 | 0.0 | 1.0 | 0.00 | 0.00 | 0.00 | 97 | 1016.5 |
| 20260905201042 | 61 | 0 | 0.0 | 1.0 | 0.00 | 0.00 | 0.00 | 97 | 1016.5 |
| 20260905200543 | 61 | 313 | 0.0 | 1.0 | 0.00 | 0.00 | 0.00 | 97 | 1016.4 |
| 20260905200104 | 61 | 314 | 0.0 | 1.0 | 0.00 | 0.00 | 0.00 | 97 | 1016.4 |
| 20260905195543 | 61 | 0 | 0.0 | 1.0 | 0.00 | 0.00 | 0.00 | 97 | 1016.5 |
| 20260905195042 | 61 | 0 | 0.0 | 0.0 | 0.00 | 0.00 | 0.00 | 97 | 1016.6 |
| 20260905194558 | 61 | 0 | 0.0 | 1.0 | 0.00 | 0.00 | 0.00 | 97 | 1016.5 |
| 20260905194043 | 61 | 0 | 0.0 | 1.0 | 0.00 | 0.00 | 0.00 | 97 | 1016.6 |
| 20260905193543 | 62 | 0 | 0.0 | 1.0 | 0.00 | 0.00 | 0.00 | 97 | 1016.6 |
| 20260905193057 | 62 | 0 | 0.0 | 1.0 | 0.00 | 0.00 | 0.00 | 97 | 1016.6 |
| 20260905192542 | 63 | 310 | 0.0 | 4.0 | 0.00 | 0.00 | 0.00 | 97 | 1016.7 |
| 20260905192043 | 63 | 23 | 0.0 | 4.0 | 0.00 | 0.00 | 0.00 | 97 | 1016.7 |
| 20260905191554 | 63 | 184 | 1.0 | 4.0 | 0.00 | 0.00 | 0.00 | 98 | 1016.8 |
| 20260905191043 | 63 | 0 | 0.0 | 2.0 | 0.00 | 0.00 | 0.00 | 98 | 1016.2 |
| 20260905190543 | 63 | 0 | 1.0 | 2.0 | 0.00 | 0.00 | 0.00 | 98 | 1016.3 |
| 20260905190053 | 62 | 189 | 0.0 | 1.0 | 0.00 | 0.00 | 0.00 | 98 | 1016.6 |
| 20260905185544 | 62 | 0 | 0.0 | 1.0 | 0.00 | 0.00 | 0.00 | 98 | 1016.5 |
| 20260905185042 | 62 | 0 | 0.0 | 1.0 | 0.00 | 0.00 | 0.00 | 97 | 1016.3 |
| 20260905184600 | 62 | 0 | 0.0 | 1.0 | 0.00 | 0.00 | 0.00 | 97 | 1016.3 |
| 20260905184042 | 62 | 0 | 0.0 | 1.0 | 0.00 | 0.00 | 0.00 | 97 | 1016.4 |
| 20260905183542 | 62 | 311 | 0.0 | 3.0 | 0.00 | 0.00 | 0.00 | 97 | 1016.2 |
| 20260905183104 | 62 | 307 | 1.0 | 3.0 | 0.00 | 0.00 | 0.00 | 98 | 1016.3 |
| 20260905182542 | 62 | 297 | 0.0 | 1.0 | 0.00 | 0.00 | 0.00 | 98 | 1016.4 |
| 20260905182042 | 62 | 0 | 0.0 | 0.0 | 0.00 | 0.00 | 0.00 | 98 | 1016.6 |
| 20260905181609 | 62 | 0 | 0.0 | 0.0 | 0.00 | 0.00 | 0.00 | 98 | 1016.6 |
| 20260905181041 | 62 | 0 | 0.0 | 0.0 | 0.00 | 0.00 | 0.00 | 97 | 1016.8 |
| 20260905180541 | 62 | 0 | 0.0 | 0.0 | 0.00 | 0.00 | 0.00 | 97 | 1016.8 |
| 20260905180109 | 61 | 0 | 0.0 | 0.0 | 0.00 | 0.00 | 0.00 | 98 | 1016.5 |
| 20260905175545 | 61 | 0 | 0.0 | 0.0 | 0.00 | 0.00 | 0.00 | 97 | 1016.4 |
| 20260905175043 | 61 | 0 | 0.0 | 0.0 | 0.00 | 0.00 | 0.00 | 97 | 1016.2 |
| 20260905174559 | 60 | 0 | 0.0 | 0.0 | 0.00 | 0.00 | 0.00 | 97 | 1016.0 |
| 20260905174042 | 60 | 0 | 0.0 | 0.0 | 0.00 | 0.00 | 0.00 | 97 | 1015.9 |
| 20260905173547 | 60 | 0 | 0.0 | 0.0 | 0.00 | 0.00 | 0.00 | 97 | 1015.9 |
| 20260905173057 | 60 | 0 | 0.0 | 0.0 | 0.00 | 0.00 | 0.00 | 97 | 1015.8 |
| 20260905172544 | 60 | 0 | 0.0 | 0.0 | 0.00 | 0.00 | 0.00 | 97 | 1015.7 |
| 20260905172043 | 60 | 0 | 0.0 | 0.0 | 0.00 | 0.00 | 0.00 | 97 | 1015.8 |
| 20260905171554 | 60 | 0 | 0.0 | 0.0 | 0.00 | 0.00 | 0.00 | 97 | 1015.7 |
| 20260905171043 | 60 | 0 | 0.0 | 0.0 | 0.00 | 0.00 | 0.00 | 97 | 1015.8 |
| 20260905170541 | 60 | 0 | 0.0 | 0.0 | 0.00 | 0.00 | 0.00 | 97 | 1015.7 |
| 20260905170058 | 60 | 0 | 0.0 | 0.0 | 0.00 | 0.00 | 0.00 | 97 | 1015.8 |
| 20260905165543 | 60 | 0 | 0.0 | 0.0 | 0.00 | 0.00 | 0.00 | 97 | 1015.8 |
| 20260905165043 | 61 | 0 | 0.0 | 0.0 | 0.00 | 0.00 | 0.00 | 97 | 1015.8 |
| 20260905164559 | 60 | 0 | 0.0 | 0.0 | 0.00 | 0.00 | 0.00 | 97 | 1015.9 |
| 20260905164045 | 61 | 0 | 0.0 | 0.0 | 0.00 | 0.00 | 0.00 | 97 | 1015.8 |
| 20260905163541 | 61 | 0 | 0.0 | 0.0 | 0.00 | 0.00 | 0.00 | 97 | 1015.9 |
| 20260905163058 | 60 | 0 | 0.0 | 0.0 | 0.00 | 0.00 | 0.00 | 97 | 1015.9 |
| 20260905162543 | 60 | 0 | 0.0 | 0.0 | 0.00 | 0.00 | 0.00 | 96 | 1015.9 |
| 20260905162041 | 61 | 0 | 0.0 | 0.0 | 0.00 | 0.00 | 0.00 | 96 | 1016.0 |
| 20260905161602 | 61 | 0 | 0.0 | 0.0 | 0.00 | 0.00 | 0.00 | 97 | 1016.0 |
| 20260905161042 | 61 | 0 | 0.0 | 0.0 | 0.00 | 0.00 | 0.00 | 97 | 1015.9 |
| 20260905160542 | 60 | 0 | 0.0 | 0.0 | 0.00 | 0.00 | 0.00 | 96 | 1015.9 |
| 20260905160117 | 60 | 0 | 0.0 | 0.0 | 0.00 | 0.00 | 0.00 | 96 | 1016.1 |
| 20260905155544 | 60 | 0 | 0.0 | 0.0 | 0.00 | 0.00 | 0.00 | 96 | 1016.1 |
| 20260905155046 | 61 | 0 | 0.0 | 0.0 | 0.00 | 0.00 | 0.00 | 97 | 1016.1 |
| 20260905154602 | 61 | 0 | 0.0 | 0.0 | 0.00 | 0.00 | 0.00 | 97 | 1016.1 |
| 20260905154043 | 61 | 0 | 0.0 | 0.0 | 0.00 | 0.00 | 0.00 | 96 | 1016.2 |
| 20260905153542 | 61 | 0 | 0.0 | 0.0 | 0.00 | 0.00 | 0.00 | 96 | 1016.2 |
| 20260905153056 | 61 | 0 | 0.0 | 0.0 | 0.00 | 0.00 | 0.00 | 96 | 1016.3 |
| 20260905152543 | 61 | 0 | 0.0 | 0.0 | 0.00 | 0.00 | 0.00 | 96 | 1016.4 |
| 20260905152045 | 61 | 0 | 0.0 | 1.0 | 0.00 | 0.00 | 0.00 | 96 | 1016.4 |
| 20260905151609 | 61 | 0 | 0.0 | 1.0 | 0.00 | 0.00 | 0.00 | 96 | 1016.4 |
| 20260905151043 | 61 | 0 | 0.0 | 1.0 | 0.00 | 0.00 | 0.00 | 96 | 1016.5 |
| 20260905150545 | 61 | 312 | 0.0 | 1.0 | 0.00 | 0.00 | 0.00 | 96 | 1016.5 |
| 20260905150057 | 62 | 312 | 0.0 | 1.0 | 0.00 | 0.00 | 0.00 | 96 | 1016.5 |
| 20260905145547 | 62 | 0 | 0.0 | 1.0 | 0.00 | 0.00 | 0.00 | 96 | 1016.6 |
| 20260905145046 | 62 | 0 | 0.0 | 1.0 | 0.00 | 0.00 | 0.00 | 96 | 1016.5 |
| 20260905144558 | 62 | 312 | 0.0 | 0.0 | 0.00 | 0.00 | 0.00 | 96 | 1016.6 |
| 20260905144046 | 62 | 0 | 0.0 | 0.0 | 0.00 | 0.00 | 0.00 | 96 | 1016.6 |
| 20260905143543 | 62 | 0 | 0.0 | 1.0 | 0.00 | 0.00 | 0.00 | 96 | 1016.6 |
| 20260905143106 | 62 | 0 | 0.0 | 1.0 | 0.00 | 0.00 | 0.00 | 95 | 1016.6 |
| 20260905142547 | 63 | 313 | 0.0 | 1.0 | 0.00 | 0.00 | 0.00 | 96 | 1016.6 |
| 20260905142044 | 63 | 328 | 0.0 | 0.0 | 0.00 | 0.00 | 0.00 | 96 | 1016.5 |
| 20260905141600 | 62 | 0 | 0.0 | 0.0 | 0.00 | 0.00 | 0.00 | 95 | 1016.7 |
| 20260905141046 | 63 | 0 | 0.0 | 0.0 | 0.00 | 0.00 | 0.00 | 95 | 1016.9 |
| 20260905140546 | 63 | 0 | 0.0 | 0.0 | 0.00 | 0.00 | 0.00 | 95 | 1017.0 |
| 20260905135544 | 63 | 0 | 0.0 | 0.0 | 0.00 | 0.00 | 0.00 | 95 | 1017.1 |
| 20260905135043 | 64 | 0 | 0.0 | 0.0 | 0.00 | 0.00 | 0.00 | 95 | 1017.1 |
| 20260905134604 | 64 | 0 | 0.0 | 0.0 | 0.00 | 0.00 | 0.00 | 95 | 1017.2 |
| 20260905134045 | 64 | 0 | 0.0 | 0.0 | 0.00 | 0.00 | 0.00 | 95 | 1017.0 |
| 20260905133543 | 64 | 0 | 0.0 | 0.0 | 0.00 | 0.00 | 0.00 | 95 | 1017.1 |
| 20260905133057 | 64 | 0 | 0.0 | 0.0 | 0.00 | 0.00 | 0.00 | 95 | 1017.1 |
| 20260905132544 | 64 | 0 | 0.0 | 0.0 | 0.00 | 0.00 | 0.00 | 95 | 1017.1 |
| 20260905132048 | 64 | 0 | 0.0 | 0.0 | 0.00 | 0.00 | 0.00 | 95 | 1017.0 |
| 20260905131604 | 64 | 0 | 0.0 | 0.0 | 0.00 | 0.00 | 0.00 | 95 | 1017.2 |
| 20260905131044 | 64 | 250 | 0.0 | 1.0 | 0.00 | 0.00 | 0.00 | 94 | 1017.2 |
| 20260905130545 | 64 | 0 | 0.0 | 1.0 | 0.00 | 0.00 | 0.00 | 94 | 1017.2 |
| 20260905130101 | 64 | 249 | 0.0 | 1.0 | 0.00 | 0.00 | 0.00 | 94 | 1017.0 |
| 20260905125544 | 65 | 0 | 0.0 | 0.0 | 0.00 | 0.00 | 0.00 | 94 | 1017.0 |
| 20260905125043 | 65 | 0 | 0.0 | 0.0 | 0.00 | 0.00 | 0.00 | 94 | 1017.1 |
| 20260905124556 | 65 | 0 | 0.0 | 0.0 | 0.00 | 0.00 | 0.00 | 94 | 1017.1 |
| 20260905124044 | 65 | 0 | 0.0 | 0.0 | 0.00 | 0.00 | 0.00 | 94 | 1017.1 |
| 20260905123544 | 65 | 0 | 0.0 | 0.0 | 0.00 | 0.00 | 0.00 | 93 | 1017.2 |
| 20260905123058 | 65 | 0 | 0.0 | 0.0 | 0.00 | 0.00 | 0.00 | 93 | 1017.1 |
| 20260905122544 | 65 | 0 | 0.0 | 1.0 | 0.00 | 0.00 | 0.00 | 93 | 1017.1 |
| 20260905122045 | 65 | 0 | 0.0 | 1.0 | 0.00 | 0.00 | 0.00 | 93 | 1017.0 |
| 20260905121603 | 65 | 0 | 0.0 | 1.0 | 0.00 | 0.00 | 0.00 | 93 | 1017.0 |
| 20260905121045 | 65 | 0 | 0.0 | 0.0 | 0.00 | 0.00 | 0.00 | 92 | 1017.0 |
| 20260905120543 | 65 | 0 | 0.0 | 0.0 | 0.00 | 0.00 | 0.00 | 92 | 1017.0 |
| 20260905120110 | 65 | 0 | 0.0 | 0.0 | 0.00 | 0.00 | 0.00 | 92 | 1016.9 |
| 20260905115544 | 65 | 0 | 0.0 | 0.0 | 0.00 | 0.00 | 0.00 | 91 | 1017.0 |
| 20260905115044 | 66 | 0 | 0.0 | 0.0 | 0.00 | 0.00 | 0.00 | 92 | 1017.0 |
| 20260905114557 | 66 | 0 | 0.0 | 0.0 | 0.00 | 0.00 | 0.00 | 92 | 1017.1 |
| 20260905114044 | 66 | 0 | 0.0 | 0.0 | 0.00 | 0.00 | 0.00 | 91 | 1017.0 |
| 20260905113544 | 66 | 0 | 0.0 | 0.0 | 0.00 | 0.00 | 0.00 | 91 | 1017.0 |
| 20260905113100 | 66 | 0 | 0.0 | 0.0 | 0.00 | 0.00 | 0.00 | 90 | 1017.0 |
| 20260905112544 | 67 | 0 | 0.0 | 0.0 | 0.00 | 0.00 | 0.00 | 90 | 1017.0 |
| 20260905112043 | 67 | 0 | 0.0 | 0.0 | 0.00 | 0.00 | 0.00 | 90 | 1017.1 |
| 20260905111608 | 67 | 0 | 0.0 | 1.0 | 0.00 | 0.00 | 0.00 | 90 | 1017.1 |
| 20260905111044 | 67 | 0 | 0.0 | 1.0 | 0.00 | 0.00 | 0.00 | 89 | 1017.1 |
| 20260905110544 | 68 | 0 | 0.0 | 1.0 | 0.00 | 0.00 | 0.00 | 89 | 1017.1 |
| 20260905110101 | 68 | 0 | 0.0 | 1.0 | 0.00 | 0.00 | 0.00 | 89 | 1017.1 |
| 20260905105546 | 68 | 0 | 0.0 | 0.0 | 0.00 | 0.00 | 0.00 | 88 | 1017.2 |
| 20260905105043 | 68 | 0 | 0.0 | 0.0 | 0.00 | 0.00 | 0.00 | 88 | 1017.1 |
| 20260905104600 | 69 | 0 | 0.0 | 1.0 | 0.00 | 0.00 | 0.00 | 87 | 1017.0 |
| 20260905104044 | 69 | 0 | 0.0 | 1.0 | 0.00 | 0.00 | 0.00 | 87 | 1017.0 |
| 20260905103544 | 69 | 0 | 0.0 | 1.0 | 0.00 | 0.00 | 0.00 | 86 | 1017.0 |
| 20260905103102 | 69 | 0 | 0.0 | 2.0 | 0.00 | 0.00 | 0.00 | 86 | 1017.1 |
| 20260905102545 | 70 | 174 | 0.0 | 2.0 | 0.00 | 0.00 | 0.00 | 86 | 1017.1 |
| 20260905102044 | 70 | 155 | 0.0 | 3.0 | 0.00 | 0.00 | 0.00 | 85 | 1017.0 |
| 20260905101556 | 70 | 161 | 0.0 | 3.0 | 0.00 | 0.00 | 0.00 | 85 | 1016.8 |
| 20260905101044 | 70 | 186 | 0.0 | 1.0 | 0.00 | 0.00 | 0.00 | 84 | 1016.9 |
| 20260905100544 | 71 | 32 | 0.0 | 4.0 | 0.00 | 0.00 | 0.00 | 83 | 1016.9 |